Time,TemperatureF,DewpointF,PressureIn,WindDirection,WindDirectionDegrees,WindSpeedMPH,WindSpeedGustMPH,Humidity,HourlyPrecipIn,Conditions,Clouds,dailyrainin,SolarRadiationWatts/m^2,SoftwareType,DateUTC
2013-02-24 00:11:00,4.0,0.0,-100.00,North,7,1.0,2.0,83,0.00,,,0.00,0.000000,,2013-02-24 07:11:00,
2013-02-24 00:41:00,4.0,0.0,-100.00,North,7,1.0,2.0,83,0.00,,,0.00,0.000000,,2013-02-24 07:41:00,
2013-02-24 01:11:00,-1.0,-6.0,-100.00,NNW,346,1.0,3.0,80,0.00,,,0.00,0.000000,,2013-02-24 08:11:00,
2013-02-24 01:22:00,-1.0,-6.0,-100.00,NNW,346,1.0,3.0,80,0.00,,,0.00,0.000000,,2013-02-24 08:22:00,
2013-02-24 02:11:00,-5.0,-10.0,-100.00,NNW,337,0.0,2.0,78,-99.99,,,0.00,0.000000,,2013-02-24 09:11:00,
2013-02-24 02:21:00,-5.0,-10.0,-100.00,NNW,337,0.0,2.0,78,-99.99,,,0.00,0.000000,,2013-02-24 09:21:00,
2013-02-24 03:11:00,-7.0,-12.0,-100.00,North,355,1.0,2.0,77,-99.99,,,0.00,0.000000,,2013-02-24 10:11:00,
2013-02-24 03:21:00,-7.0,-12.0,-100.00,North,355,1.0,2.0,77,-99.99,,,0.00,0.000000,,2013-02-24 10:21:00,
2013-02-24 04:11:00,-7.0,-13.0,-100.00,North,360,0.0,6.0,76,-99.99,,,0.00,0.000000,,2013-02-24 11:11:00,
2013-02-24 05:11:00,-10.0,-16.0,-100.00,North,360,2.0,3.0,74,-99.99,,,0.00,0.000000,,2013-02-24 12:11:00,
2013-02-24 05:21:00,-10.0,-16.0,-100.00,North,360,2.0,3.0,74,-99.99,,,0.00,0.000000,,2013-02-24 12:21:00,
2013-02-24 06:15:00,-11.0,-17.0,-100.00,North,358,1.0,3.0,73,-99.99,,,0.00,0.000000,,2013-02-24 13:15:00,
2013-02-24 06:24:00,-11.0,-17.0,-100.00,North,358,1.0,3.0,73,-99.99,,,0.00,0.000000,,2013-02-24 13:24:00,
2013-02-24 07:23:00,-13.0,-19.0,-100.00,North,1,1.0,2.0,72,-99.99,,,0.00,0.000000,,2013-02-24 14:23:00,
2013-02-24 08:12:00,-13.0,-19.0,-100.00,NE,35,0.0,2.0,72,-99.99,,,0.00,2.000000,,2013-02-24 15:12:00,
2013-02-24 08:22:00,-13.0,-19.0,-100.00,NE,35,0.0,2.0,72,-99.99,,,0.00,2.000000,,2013-02-24 15:22:00,
2013-02-24 09:11:00,-4.0,-9.0,-100.00,NNE,18,0.0,3.0,78,-99.99,,,0.00,12.000000,,2013-02-24 16:11:00,
2013-02-24 09:21:00,-4.0,-9.0,-100.00,NNE,18,0.0,3.0,78,-99.99,,,0.00,12.000000,,2013-02-24 16:21:00,
2013-02-24 09:31:00,-4.0,-9.0,-100.00,NNE,18,0.0,3.0,78,-99.99,,,0.00,12.000000,,2013-02-24 16:31:00,
2013-02-24 09:41:00,-4.0,-9.0,-100.00,NNE,18,0.0,3.0,78,-99.99,,,0.00,12.000000,,2013-02-24 16:41:00,
2013-02-24 10:11:00,24.0,13.0,-100.00,NE,54,1.0,3.0,63,-99.99,,,0.00,97.000000,,2013-02-24 17:11:00,
2013-02-24 11:11:00,31.0,15.0,-100.00,North,352,2.0,7.0,50,-99.99,,,0.01,183.000000,,2013-02-24 18:11:00,
2013-02-24 11:22:00,31.0,15.0,-100.00,North,352,2.0,7.0,50,-99.99,,,0.01,183.000000,,2013-02-24 18:22:00,
2013-02-24 12:11:00,34.0,12.0,-100.00,SW,236,2.0,7.0,40,-99.99,,,0.13,574.000000,,2013-02-24 19:11:00,
2013-02-24 12:22:00,34.0,12.0,-100.00,SW,236,2.0,7.0,40,-99.99,,,0.13,574.000000,,2013-02-24 19:22:00,
2013-02-24 13:11:00,32.0,17.0,-100.00,SW,215,3.0,8.0,54,-99.99,,,0.24,501.000000,,2013-02-24 20:11:00,
2013-02-24 13:21:00,32.0,17.0,-100.00,SW,215,3.0,8.0,54,-99.99,,,0.24,501.000000,,2013-02-24 20:21:00,
2013-02-24 13:31:00,32.0,17.0,-100.00,SW,215,3.0,8.0,54,-99.99,,,0.24,501.000000,,2013-02-24 20:31:00,
2013-02-24 13:41:00,32.0,17.0,-100.00,SW,215,3.0,8.0,54,-99.99,,,0.24,501.000000,,2013-02-24 20:41:00,
2013-02-24 14:11:00,31.0,16.0,-100.00,SW,225,3.0,9.0,54,0.05,,,0.29,406.000000,,2013-02-24 21:11:00,
2013-02-24 14:21:00,31.0,16.0,-100.00,SW,225,3.0,9.0,54,0.05,,,0.29,406.000000,,2013-02-24 21:21:00,
2013-02-24 14:32:00,31.0,16.0,-100.00,SW,225,3.0,9.0,54,0.05,,,0.29,406.000000,,2013-02-24 21:32:00,
2013-02-24 14:41:00,31.0,16.0,-100.00,SW,225,3.0,9.0,54,0.05,,,0.29,406.000000,,2013-02-24 21:41:00,
2013-02-24 15:11:00,27.0,13.0,-100.00,SW,220,4.0,10.0,54,0.01,,,0.30,480.000000,,2013-02-24 22:11:00,
2013-02-24 15:21:00,27.0,13.0,-100.00,SW,220,4.0,10.0,54,0.01,,,0.30,480.000000,,2013-02-24 22:21:00,
2013-02-24 15:31:00,27.0,13.0,-100.00,SW,220,4.0,10.0,54,0.01,,,0.30,480.000000,,2013-02-24 22:31:00,
2013-02-24 15:41:00,27.0,13.0,-100.00,SW,220,4.0,10.0,54,0.01,,,0.30,480.000000,,2013-02-24 22:41:00,
2013-02-24 16:11:00,26.0,12.0,-100.00,WSW,248,4.0,10.0,54,0.00,,,0.30,473.000000,,2013-02-24 23:11:00,
2013-02-24 16:21:00,26.0,12.0,-100.00,WSW,248,4.0,10.0,54,0.00,,,0.30,473.000000,,2013-02-24 23:21:00,
2013-02-24 16:31:00,26.0,12.0,-100.00,WSW,248,4.0,10.0,54,0.00,,,0.30,473.000000,,2013-02-24 23:31:00,
2013-02-24 16:41:00,26.0,12.0,-100.00,WSW,248,4.0,10.0,54,0.00,,,0.30,473.000000,,2013-02-24 23:41:00,
2013-02-24 17:11:00,21.0,10.0,-100.00,SW,216,3.0,8.0,61,0.00,,,0.30,92.000000,,2013-02-25 00:11:00,
2013-02-24 17:21:00,21.0,10.0,-100.00,SW,216,3.0,8.0,61,0.00,,,0.30,92.000000,,2013-02-25 00:21:00,
2013-02-24 17:31:00,21.0,10.0,-100.00,SW,216,3.0,8.0,61,0.00,,,0.30,92.000000,,2013-02-25 00:31:00,
2013-02-24 17:41:00,21.0,10.0,-100.00,SW,216,3.0,8.0,61,0.00,,,0.30,92.000000,,2013-02-25 00:41:00,
2013-02-24 18:11:00,16.0,7.0,-100.00,WSW,252,3.0,9.0,68,0.00,,,0.30,22.000000,,2013-02-25 01:11:00,
2013-02-24 18:21:00,16.0,7.0,-100.00,WSW,252,3.0,9.0,68,0.00,,,0.30,22.000000,,2013-02-25 01:21:00,
2013-02-24 18:31:00,16.0,7.0,-100.00,WSW,252,3.0,9.0,68,0.00,,,0.30,22.000000,,2013-02-25 01:31:00,
2013-02-24 18:42:00,16.0,7.0,-100.00,WSW,252,3.0,9.0,68,0.00,,,0.30,22.000000,,2013-02-25 01:42:00,
2013-02-24 19:11:00,9.0,4.0,-100.00,NNE,21,0.0,4.0,81,0.00,,,0.30,3.000000,,2013-02-25 02:11:00,
2013-02-24 19:21:00,9.0,4.0,-100.00,NNE,21,0.0,4.0,81,0.00,,,0.30,3.000000,,2013-02-25 02:21:00,
2013-02-24 19:31:00,9.0,4.0,-100.00,NNE,21,0.0,4.0,81,0.00,,,0.30,3.000000,,2013-02-25 02:31:00,
2013-02-24 19:41:00,9.0,4.0,-100.00,NNE,21,0.0,4.0,81,0.00,,,0.30,3.000000,,2013-02-25 02:41:00,
2013-02-24 20:11:00,3.0,-1.0,-100.00,North,354,0.0,2.0,82,0.00,,,0.30,0.000000,,2013-02-25 03:11:00,
2013-02-24 20:21:00,3.0,-1.0,-100.00,North,354,0.0,2.0,82,0.00,,,0.30,0.000000,,2013-02-25 03:21:00,
2013-02-24 20:31:00,3.0,-1.0,-100.00,North,354,0.0,2.0,82,0.00,,,0.30,0.000000,,2013-02-25 03:31:00,
2013-02-24 21:11:00,-1.0,-6.0,-100.00,NNW,346,2.0,2.0,80,-99.99,,,0.30,0.000000,,2013-02-25 04:11:00,
2013-02-24 21:21:00,-1.0,-6.0,-100.00,NNW,346,2.0,2.0,80,-99.99,,,0.30,0.000000,,2013-02-25 04:21:00,
2013-02-24 22:11:00,-2.0,-7.0,-100.00,NNE,30,0.0,2.0,80,-99.99,,,-99.99,0.000000,,2013-02-25 05:11:00,
2013-02-24 23:11:00,-4.0,-9.0,-100.00,North,350,0.0,2.0,78,-99.99,,,0.30,0.000000,,2013-02-25 06:11:00,
2013-02-24 23:21:00,-4.0,-9.0,-100.00,North,350,0.0,2.0,78,-99.99,,,0.30,0.000000,,2013-02-25 06:21:00,